カタログに戻る

STARLINK-32006

運用中通信VLEO
NORAD 60029·PAYLOAD·🇺🇸 United States

打ち上げ Jun 8, 2024 から Cape Canaveral Space Force Station

Loading…

次のパス (今後24時間)

TLE

最新Source: CelesTrak SupGP

元期: Sep 15, 2026, 02:19 UTC

1 60029C 24111P   26258.09701389  .00005059  00000+0  14945-3 0  2588
2 60029  53.1573 274.7118 0001178  89.3529  91.3422 15.34389694    10

AllMySatでSTARLINK-32006をリアルタイム追跡

Download on the App Store